• Join FlightAware (Why Join?)
  • Login
  • US Flag 
06:18AM EDT


 

Airport Tracker/Info


-or-


 

Live Flight TrackerFlight Track Log ✈ WBR2634 ✈ 7 de Jun de 2013 ✈ KBRL - KORD

Flight Track Log - Related Links

Times and Time Zones

All times are in EDT time to prevent confusion due to time zone crossing. See the WBR2634 flight status page for this flight to view local times or setup timezone preferences in your user account.

Time Position Orientation Groundspeed Altitude Reporting Facility
EDT Latitude Longitude Course Direction KTS MPH feet Rate Location/Type
06:38PM 40.8311 -91.0800 73° East 174 200 2,200  Level Chicago Center
06:39PM 40.8373 -90.8509 72° East  Level FlightAware Approximate
06:40PM 40.8512 -90.7977 57° Northeast  Level FlightAware Approximate
06:40PM 40.8467 -91.0414 62° Northeast 124 143 3,100  Level Chicago Center
06:41PM 40.8673 -90.7476 72° East  Level FlightAware Approximate
06:41PM 40.8586 -91.0008 69° East 121 139 3,800  Level Chicago Center
06:42PM 40.8806 -90.6941 72° East  Level FlightAware Approximate
06:42PM 40.8672 -90.9592 75° East 120 138 4,400  Level Chicago Center
06:43PM 40.8934 -90.6402 73° East  Level FlightAware Approximate
06:43PM 40.8822 -90.9203 63° Northeast 118 136 5,100  Level Chicago Center
06:44PM 40.9059 -90.5863 73° East  Level FlightAware Approximate
06:44PM 40.8997 -90.8706 65° Northeast 122 140 5,900  Level Chicago Center
06:45PM 40.9156 -90.8256 65° Northeast 131 151 6,400 480 Climbing Chicago Center
06:46PM 40.9289 -90.7775 70° East 137 158 6,900 480 Climbing Chicago Center
06:47PM 40.9431 -90.7306 68° East 138 159 7,500 600 Climbing Chicago Center
06:48PM 40.9594 -90.6844 65° Northeast 138 159 8,200 600 Climbing Chicago Center
06:49PM 40.9758 -90.6386 65° Northeast 138 159 8,800 360 Climbing Chicago Center
06:50PM 40.9933 -90.5775 69° East 144 166 9,000 60 Climbing Chicago Center
06:51PM 41.0106 -90.5233 67° East 154 177 9,000  Level Chicago Center
06:52PM 41.0297 -90.4736 63° Northeast 151 174 9,000  Level Chicago Center
06:53PM 41.0447 -90.4214 69° East 152 175 9,000  Level Chicago Center
06:54PM 41.0617 -90.3714 66° East 149 171 9,000  Level Chicago Center
06:55PM 41.0786 -90.3197 66° East 151 174 9,000  Level Chicago Center
06:56PM 41.0939 -90.2683 68° East 151 174 9,000  Level Chicago Center
06:57PM 41.1103 -90.2019 72° East 157 181 9,100 -300 Climbing Chicago Center
06:58PM 41.1286 -90.1456 67° East 163 188 8,500 -540 Descending Chicago Center
06:59PM 41.1483 -90.0853 66° East 175 201 8,100 -240 Descending Chicago Center
07:00PM 41.1667 -90.0275 67° East 172 198 8,100 -60 Level Chicago Center
07:01PM 41.1844 -89.9717 67° East 165 190 8,000 -60 Descending Chicago Center
07:02PM 41.2039 -89.9208 63° Northeast 157 181 8,000 -60 Level Chicago Center
07:03PM 41.2256 -89.8572 66° East 157 181 7,900  Descending Chicago Center
07:04PM 41.2425 -89.8019 68° East 160 184 8,000  Climbing Chicago Center
07:05PM 41.2606 -89.7497 65° Northeast 157 181 8,000 -60 Level Chicago Center
07:06PM 41.2789 -89.6964 65° Northeast 158 182 7,900  Descending Chicago Center
07:07PM 41.2942 -89.6417 70° East 158 182 8,000  Climbing Chicago Center
07:08PM 41.3106 -89.5867 68° East 159 183 8,000 -60 Level Chicago Center
07:10PM 41.3261 -89.5331 69° East 156 180 7,900  Descending Chicago Center
07:11PM 41.3456 -89.4711 67° East 153 176 8,000 60 Climbing Chicago Center
07:12PM 41.3633 -89.4200 65° Northeast 153 176 8,100  Climbing Chicago Center
07:13PM 41.3842 -89.3697 61° Northeast 153 176 8,000  Descending Chicago Center
07:14PM 41.4039 -89.3169 64° Northeast 157 181 8,100  Climbing Chicago Center
07:15PM 41.4194 -89.2611 70° East 158 182 8,000 -120 Descending Chicago Center
07:16PM 41.4361 -89.2053 68° East 160 184 7,900  Descending Chicago Center
07:17PM 41.4522 -89.1428 71° East 154 177 8,000  Climbing Chicago Center
07:18PM 41.4711 -89.0911 64° Northeast 153 176 7,900 -60 Descending Chicago Center
07:19PM 41.4881 -89.0397 66° East 153 176 7,900  Level Chicago Center
07:20PM 41.5064 -88.9881 65° Northeast 153 176 7,900  Level Chicago Center
07:21PM 41.5225 -88.9353 68° East 153 176 8,000  Climbing Chicago Center
07:22PM 41.5381 -88.8711 72° East 153 176 8,000  Level Chicago Center
07:23PM 41.5561 -88.8197 65° Northeast 153 176 8,000  Level Chicago Center
07:24PM 41.5708 -88.7681 69° East 151 174 8,000  Level Chicago Center
07:25PM 41.5850 -88.7156 70° East 152 175 8,000  Level Chicago Center
07:26PM 41.6014 -88.6639 67° East 152 175 8,000  Level Chicago Center
07:27PM 41.6217 -88.5997 67° East 158 182 8,100  Climbing Chicago Center
07:28PM 41.6389 -88.5411 69° East 178 205 8,100  Level Chicago Center
07:29PM 41.6483 -88.4797 78° East 171 197 8,100 -60 Level Chicago Center
07:30PM 41.6597 -88.4186 76° East 170 196 8,000  Descending Chicago Center
07:31PM 41.6689 -88.3558 79° East 172 198 8,100 -360 Climbing Chicago Center
07:32PM 41.6806 -88.2778 79° East 180 207 7,300 -780 Descending Chicago Center
07:33PM 41.6894 -88.2114 80° East 181 208 6,600 -780 Descending Chicago Center
07:34PM 41.7258 -88.1689 41° Northeast 173 199 5,700 -780 Descending Chicago Center
07:35PM 41.7600 -88.1272 42° Northeast 170 196 5,100 -660 Descending Chicago Center
07:36PM 41.7953 -88.0864 41° Northeast 168 193 4,400 -780 Descending Chicago Center
07:37PM 41.8294 -88.0461 41° Northeast 166 191 3,600 -900 Descending Chicago Center
07:38PM 41.8719 -87.9981 40° Northeast 167 192 2,600 -960 Descending Chicago Center
07:40PM 41.9061 -87.9553 43° Northeast 167 192 1,700 -780 Descending Chicago Center
07:41PM 41.9411 -87.9142 41° Northeast 164 189 1,100 -600 Descending Chicago Center